TOURFACTS.DK  
Stats and Facts from Tour de France.

Tour de France 2019 starts in 323 days
  Riders   Stages   Teams   Summits   Yearly  


 
Search by year

After 2018 - Stage 21:
 15000 starters.
  5165 different riders.
  638 teams.
  2253 stages.
  456 restdays.
  442940.60 km.
  5684 abandonnees.


Top 3
GC
Geraint Thomas83:17:13
Tom Dumoulin83:19:04
Christopher Froome83:19:37
Climb
Julian Alaphilippe170 pt.
Warren Barguil91 pt.
Rafal Majka76 pt.
Sprint
Peter Sagan477 pt.
Alexander Kristoff246 pt.
Arnaud Démare203 pt.
Youth
Pierre-Roger Latou..83:39:26
Egan Bernal83:45:05
Guillaume Martin84:01:31
Facts from Tour de France 1949
  |   Stages.  |   Stage winners.  |   Days in yellow  |   Average speed.  |   Route.  |   Teams.  |   All riders.  |   Rookies.  |  

  |   Withdrawls.  |   GC.  |   Polka  |   Green  |   White  |   Summits. (In tour)  |   Miscellaneous.  |  

Stage 7 on 07 - 07 - 1949
         Owning:    Jacques Marinelli    
Pick a stage:  1 2 3 4 5 6 7 8 9 10 11 12 13 14 15 16 17 18 19 20 21
  Les Sables-d´OlonneLa Rochelle | Dist: 92.00 km.

Average speed for all riders in stage:  37,307 km./hr.
    Place:Name:Team:Time:Km/h:
1
ITAFausto CoppiITAItaly02:18:10  +  00:00:00=39,952 
2
SUIFerdi KüblerCHESwitzerland02:19:42  +  00:01:32=39,513 
3
BELRik Van SteenbergenBELBelgium02:20:57  +  00:02:47=39,163 
44 ITAGuido De SantiITAItaly02:21:28  +  00:03:18=39,020 
55 ITABruno PasquiniITAItaly02:21:59  +  00:03:49=38,878 
66 ITAGino BartaliITAItaly02:22:41  +  00:04:31=38,687 
77 ITAGiuseppe AusendaITACadetti Italiens02:23:00  +  00:04:50=38,601 
88 ITAGiovanni CorrieriITAItaly02:23:05  +  00:04:55=38,579 
99 FRAMarcel DussaultFRACenter-South West02:23:24  +  00:05:14=38,494 
1010 ITANello LaurediFRASouth-East02:23:50  +  00:05:40=38,378 
1111 BELRoger GhyselinckBELBelgium02:23:51  +  00:05:41=38,373 
1212 ITASerifano BiagioniITAItaly02:24:17  +  00:06:07=38,258 
1313 FRALouis DeprezFRAFrance02:24:51  +  00:06:41=38,108 
1414 ITAGiuseppe TaccaFRAIle De France02:24:52  +  00:06:42=38,104 
1515 FRAPierre CoganFRAWest-North02:25:06  +  00:06:56=38,043 
1616 MARCustodio Dos ReisFRACenter-South West02:25:08  +  00:06:58=38,034 
1717 FRAGuy LapébieFRAFrance02:25:11  +  00:07:01=38,021 
1818 ITASylvio PedroniITACadetti Italiens02:25:15  +  00:07:05=38,003 
1919 FRAAntonin RollandFRASouth-East02:25:25  +  00:07:15=37,960 
2020 ITAVincenzo RosselloITAItaly02:25:28  +  00:07:18=37,947 
2121 FRAGeorges RamouluxFRACenter-South West02:25:29  +  00:07:19=37,942 
2222 FRAJacques MarinelliFRAIle De France02:25:42  +  00:07:32=37,886 
2323 FRARoger LevequeFRACenter-South West02:25:43  +  00:07:33=37,882 
2424 BELRoger LambrechtBELBelgium02:25:46  +  00:07:36=37,869 
2525 ITAFermo CamelliniFRASouth-East02:25:52  +  00:07:42=37,843 
2626 FRARaymond LucasFRAIle De France02:26:02  +  00:07:52=37,800 
2727 LUXJean DiederichLUXLuxembourg02:26:05  +  00:07:55=37,787 
2828 BELStan OckersBELBelgium02:26:06  +  00:07:56=37,782 
2929 FRARobert DesbatsFRACenter-South West02:26:06  +  00:07:56=37,782 
3030 BELRaymond ImpanisBELBelgium02:26:08  +  00:07:58=37,774 
3131 FRABernard GauthierFRAFrance02:26:10  +  00:08:00=37,765 
3232 LUXJean GoldschmitLUXLuxembourg02:26:18  +  00:08:08=37,731 
3333 LUXMarcel ErnzerLUXLuxembourg02:26:35  +  00:08:25=37,658 
3434 FRAGeorges MartinFRASouth-East02:26:35  +  00:08:25=37,658 
3535 ITAGino SciardisITAItaly02:26:38  +  00:08:28=37,645 
3636 ITAÉdouard FachleitnerFRASouth-East02:26:39  +  00:08:29=37,641 
3737 BELMarcel DupontBELAiglons Belges02:26:45  +  00:08:35=37,615 
3838 FRAAlbert DolhatsFRACenter-South West02:26:58  +  00:08:48=37,560 
3939 FRAPaul GiguetFRASouth-East02:27:09  +  00:08:59=37,513 
4040 BELFlorent MathieuBELBelgium02:27:12  +  00:09:02=37,500 
4141 BELMarcel De MulderBELAiglons Belges02:27:31  +  00:09:21=37,420 
4342 FRARoger Le NizerhyFRAWest-North02:27:32  +  00:09:22=37,415 
4443 ITAAngelo BrignoleITAItaly02:27:35  +  00:09:25=37,403 
4544 FRAJean BlancFRACenter-South West02:27:38  +  00:09:28=37,390 
4645 LUXJean KirchenLUXLuxembourg02:27:52  +  00:09:42=37,331 
4746 FRAJean ReyFRASouth-East02:27:55  +  00:09:45=37,318 
4847 ITAVittorio MagniITACadetti Italiens02:28:11  +  00:10:01=37,251 
4948 ITALuciano PezziITAItaly02:28:17  +  00:10:07=37,226 
5049 BELJoseph VerhaertBELAiglons Belges02:28:23  +  00:10:13=37,201 
5150 FRAGeorges GuillierFRAIle De France02:28:25  +  00:10:15=37,193 
5251 FRAAndre MahéFRAWest-North02:28:41  +  00:10:31=37,126 
5352 FRAAndré BruléFRAIle De France02:28:44  +  00:10:34=37,113 
5453 FRALouison BobetFRAFrance02:28:46  +  00:10:36=37,105 
5554 SUIPierre BrambillaFRASouth-East02:28:53  +  00:10:43=37,076 
5655 FRARaphaël GeminianiFRAFrance02:29:01  +  00:10:51=37,043 
5756 NEDHenk de HoogNLDHolland02:29:01  +  00:10:51=37,043 
5857 FRAJean RobicFRAWest-North02:29:09  +  00:10:59=37,010 
5958 FRAJean-Apotre LazaridesFRAFrance02:29:13  +  00:11:03=36,993 
6059 FRALouis CaputFRAIle De France02:29:30  +  00:11:20=36,923 
6160 NEDWim De RuyterNLDHolland02:29:32  +  00:11:22=36,915 
6261 FRACamille DanguillaumeFRAFrance02:29:35  +  00:11:25=36,903 
6362 SUIGeorges AeschlimannCHESwitzerland02:29:52  +  00:11:42=36,833 
6463 FRAPaul PineauFRACenter-South West02:30:06  +  00:11:56=36,775 
6564 ITAArmando PeverelliITACadetti Italiens02:30:12  +  00:12:02=36,751 
6665 ITAEttore MilanoITAItaly02:30:15  +  00:12:05=36,739 
6766 FRALucien LazaridesFRAFrance02:30:16  +  00:12:06=36,735 
6867 FRAHenri MassalFRACenter-South West02:30:17  +  00:12:07=36,731 
6968 ITAAdolphe DeleddaFRASouth-East02:30:31  +  00:12:21=36,674 
7069 FRAJean-Marie GoasmatFRAWest-North02:30:47  +  00:12:37=36,609 
7170 BELBriek SchotteBELBelgium02:30:51  +  00:12:41=36,593 
7271 FRAMaurice DiotFRAFrance02:31:07  +  00:12:57=36,528 
7372 ITAAlfredo MartiniITACadetti Italiens02:31:12  +  00:13:02=36,508 
7473 FRARené ViettoFRAFrance02:31:16  +  00:13:06=36,492 
7574 FRARobert ChapatteFRAFrance02:31:22  +  00:13:12=36,468 
7675 BELDésiré KeteleerBELBelgium02:31:23  +  00:13:13=36,464 
7776 FRALucien TeisseireFRAFrance02:31:31  +  00:13:21=36,432 
7877 NEDFrans PauwelsNLDHolland02:31:52  +  00:13:42=36,348 
7978 SUIRoger AeschlimannCHESwitzerland02:32:10  +  00:14:00=36,276 
8079 BELEdward Van DijckBELBelgium02:32:46  +  00:14:36=36,134 
8180 SUIGottfried WeilenmannCHESwitzerland02:32:47  +  00:14:37=36,130 
8281 BELJacques GeusBELAiglons Belges02:32:52  +  00:14:42=36,110 
8382 GERCésar MarcelakFRAWest-North02:33:05  +  00:14:55=36,059 
8483 FRAEdouard MullerFRAIle De France02:33:17  +  00:15:07=36,012 
8584 ITAMario RicciITAItaly02:34:22  +  00:16:12=35,759 
8685 BELNorbert CallensBELBelgium02:34:24  +  00:16:14=35,751 
8786 BELMarcel HendrickxBELAiglons Belges02:37:13  +  00:19:03=35,111 
8887 FRAAnge Le StratFRAWest-North02:44:10  +  00:26:00=33,624 

Todays birthdays.

1874  Achille Colas
1895  Lucien Meunier
1902  Lazare Venot
1915  Albert Gijsen
1924  Marcel Zelasco
1930  Juan Campillo
1931  Jean-Claude Skerl
1934  Jean Selic
1935  Arnaldo Pambianco
1955  Mario Beccia
1956  Daniel Willems
1957  Dominique Sanders
1959  Marc Sergeant
1960  Éric Caritoux
1963  Jelle Nijdam
1971  Arnaud Prétot
1980  Piet Rooijakkers